Time,TemperatureF,DewpointF,PressureIn,WindDirection,WindDirectionDegrees,WindSpeedMPH,WindSpeedGustMPH,Humidity,HourlyPrecipIn,Conditions,Clouds,dailyrainin,SoftwareType,DateUTC
2013-02-28 00:00:00,33.2,32.7,29.51,West,267,0.0,0.0,98,0.00,,---,0.31,VWS V14.01,2013-02-28 05:00:00,
2013-02-28 00:05:00,33.3,32.8,29.51,West,267,0.0,1.0,98,0.00,,---,0.00,VWS V14.01,2013-02-28 05:05:00,
2013-02-28 00:10:00,33.3,32.8,29.51,West,262,0.0,3.0,98,0.00,,---,0.00,VWS V14.01,2013-02-28 05:10:00,
2013-02-28 00:15:00,33.4,32.9,29.51,West,262,0.0,0.0,98,0.00,,---,0.00,VWS V14.01,2013-02-28 05:15:00,
2013-02-28 00:20:00,33.4,32.9,29.51,West,262,0.0,0.0,98,0.00,,---,0.00,VWS V14.01,2013-02-28 05:20:00,
2013-02-28 00:25:00,33.4,32.9,29.51,West,262,0.0,1.0,98,0.00,,---,0.00,VWS V14.01,2013-02-28 05:25:00,
2013-02-28 00:30:00,33.4,32.9,29.51,West,262,0.0,1.0,98,0.00,,---,0.00,VWS V14.01,2013-02-28 05:30:00,
2013-02-28 00:35:00,33.5,33.0,29.51,West,262,0.0,1.0,98,0.00,,---,0.00,VWS V14.01,2013-02-28 05:35:00,
2013-02-28 00:40:00,33.5,33.0,29.51,West,263,0.0,1.0,98,0.00,,---,0.00,VWS V14.01,2013-02-28 05:40:00,
2013-02-28 00:45:00,33.5,33.0,29.51,SW,227,0.0,1.0,98,0.00,,---,0.00,VWS V14.01,2013-02-28 05:45:00,
2013-02-28 00:50:00,33.5,33.0,29.52,SW,227,0.0,1.0,98,0.00,,---,0.00,VWS V14.01,2013-02-28 05:50:00,
2013-02-28 00:55:00,33.6,33.1,29.52,SW,230,0.0,1.0,98,0.00,,---,0.00,VWS V14.01,2013-02-28 05:55:00,
2013-02-28 01:00:00,33.6,33.3,29.52,North,0,0.0,1.0,99,0.00,,---,0.00,VWS V14.01,2013-02-28 06:00:00,
2013-02-28 01:05:00,33.6,33.3,29.52,North,0,0.0,1.0,99,0.00,,---,0.00,VWS V14.01,2013-02-28 06:05:00,
2013-02-28 01:10:00,33.7,33.5,29.52,NNW,331,0.0,1.0,99,0.00,,---,0.00,VWS V14.01,2013-02-28 06:10:00,
2013-02-28 01:15:00,33.6,33.3,29.52,NNW,331,0.0,1.0,99,0.00,,---,0.00,VWS V14.01,2013-02-28 06:15:00,
2013-02-28 01:20:00,33.7,33.5,29.52,NNW,331,0.0,1.0,99,0.00,,---,0.00,VWS V14.01,2013-02-28 06:20:00,
2013-02-28 01:25:00,33.6,33.3,29.52,NNW,331,0.0,0.0,99,0.00,,---,0.00,VWS V14.01,2013-02-28 06:25:00,
2013-02-28 01:30:00,33.6,33.3,29.52,NNW,331,0.0,1.0,99,0.00,,---,0.00,VWS V14.01,2013-02-28 06:30:00,
2013-02-28 01:35:00,33.6,33.1,29.52,NNW,331,0.0,0.0,98,0.00,,---,0.00,VWS V14.01,2013-02-28 06:35:00,
2013-02-28 01:40:00,33.6,33.3,29.52,WSW,237,0.0,1.0,99,0.00,,---,0.00,VWS V14.01,2013-02-28 06:40:00,
2013-02-28 01:45:00,33.6,33.3,29.52,WSW,238,1.0,1.0,99,0.00,,---,0.00,VWS V14.01,2013-02-28 06:45:00,
2013-02-28 01:50:00,33.7,33.5,29.53,SSW,193,0.0,1.0,99,0.00,,---,0.00,VWS V14.01,2013-02-28 06:50:00,
2013-02-28 01:55:00,33.7,33.5,29.53,SSW,193,0.0,2.0,99,0.00,,---,0.00,VWS V14.01,2013-02-28 06:55:00,
2013-02-28 02:00:00,33.6,33.3,29.53,SSW,193,0.0,3.0,99,0.00,,---,0.00,VWS V14.01,2013-02-28 07:00:00,
2013-02-28 02:05:00,33.7,33.5,29.53,SSW,193,0.0,1.0,99,0.00,,---,0.00,VWS V14.01,2013-02-28 07:05:00,
2013-02-28 02:10:00,33.7,33.5,29.53,NNW,328,0.0,1.0,99,0.01,,---,0.01,VWS V14.01,2013-02-28 07:10:00,
2013-02-28 02:15:00,33.7,33.5,29.53,NNW,328,0.0,1.0,99,0.01,,---,0.01,VWS V14.01,2013-02-28 07:15:00,
2013-02-28 02:20:00,33.6,33.3,29.54,West,269,0.0,2.0,99,0.01,,---,0.01,VWS V14.01,2013-02-28 07:20:00,
2013-02-28 02:25:00,33.6,33.3,29.54,West,269,0.0,0.0,99,0.01,,---,0.01,VWS V14.01,2013-02-28 07:25:00,
2013-02-28 02:30:00,33.6,33.3,29.54,West,269,0.0,0.0,99,0.01,,---,0.01,VWS V14.01,2013-02-28 07:30:00,
2013-02-28 02:35:00,33.6,33.3,29.54,West,269,0.0,2.0,99,0.01,,---,0.01,VWS V14.01,2013-02-28 07:35:00,
2013-02-28 02:40:00,33.6,33.3,29.54,West,269,0.0,1.0,99,0.01,,---,0.01,VWS V14.01,2013-02-28 07:40:00,
2013-02-28 02:45:00,33.6,33.1,29.54,West,269,1.0,2.0,98,0.01,,---,0.01,VWS V14.01,2013-02-28 07:45:00,
2013-02-28 02:50:00,33.5,33.0,29.54,NW,304,2.0,2.0,98,0.01,,---,0.01,VWS V14.01,2013-02-28 07:50:00,
2013-02-28 02:55:00,33.6,33.1,29.54,NW,304,0.0,2.0,98,0.01,,---,0.01,VWS V14.01,2013-02-28 07:55:00,
2013-02-28 03:00:00,33.5,33.0,29.54,NW,304,0.0,1.0,98,0.01,,---,0.01,VWS V14.01,2013-02-28 08:00:00,
2013-02-28 03:05:00,33.5,33.0,29.55,NW,304,0.0,2.0,98,0.01,,---,0.01,VWS V14.01,2013-02-28 08:05:00,
2013-02-28 03:10:00,33.5,33.0,29.55,NW,304,0.0,2.0,98,0.00,,---,0.01,VWS V14.01,2013-02-28 08:10:00,
2013-02-28 03:15:00,33.5,33.0,29.55,NW,304,0.0,2.0,98,0.00,,---,0.01,VWS V14.01,2013-02-28 08:15:00,
2013-02-28 03:20:00,33.5,33.0,29.55,NW,304,0.0,2.0,98,0.00,,---,0.01,VWS V14.01,2013-02-28 08:20:00,
2013-02-28 03:25:00,33.4,32.9,29.55,NW,304,0.0,2.0,98,0.00,,---,0.01,VWS V14.01,2013-02-28 08:25:00,
2013-02-28 03:30:00,33.4,32.9,29.55,NW,304,0.0,1.0,98,0.00,,---,0.01,VWS V14.01,2013-02-28 08:30:00,
2013-02-28 03:35:00,33.4,32.9,29.55,WNW,299,0.0,2.0,98,0.00,,---,0.01,VWS V14.01,2013-02-28 08:35:00,
2013-02-28 03:40:00,33.4,32.9,29.55,WNW,300,0.0,1.0,98,0.00,,---,0.01,VWS V14.01,2013-02-28 08:40:00,
2013-02-28 03:45:00,33.4,32.9,29.55,NW,316,4.0,4.0,98,0.00,,---,0.01,VWS V14.01,2013-02-28 08:45:00,
2013-02-28 03:50:00,33.4,32.9,29.56,WNW,303,0.0,1.0,98,0.00,,---,0.01,VWS V14.01,2013-02-28 08:50:00,
2013-02-28 03:55:00,33.4,32.9,29.56,NW,315,0.0,1.0,98,0.00,,---,0.01,VWS V14.01,2013-02-28 08:55:00,
2013-02-28 04:00:00,33.4,32.9,29.56,NW,313,1.0,2.0,98,0.00,,---,0.01,VWS V14.01,2013-02-28 09:00:00,
2013-02-28 04:05:00,33.4,32.9,29.56,NW,321,0.0,2.0,98,0.00,,---,0.01,VWS V14.01,2013-02-28 09:05:00,
2013-02-28 04:10:00,33.4,32.9,29.56,NW,321,0.0,2.0,98,0.00,,---,0.01,VWS V14.01,2013-02-28 09:10:00,
2013-02-28 04:15:00,33.4,32.9,29.56,NW,321,0.0,1.0,98,0.00,,---,0.01,VWS V14.01,2013-02-28 09:15:00,
2013-02-28 04:20:00,33.4,32.9,29.56,NW,321,0.0,1.0,98,0.00,,---,0.01,VWS V14.01,2013-02-28 09:20:00,
2013-02-28 04:25:00,33.4,32.9,29.56,NW,320,0.0,3.0,98,0.00,,---,0.01,VWS V14.01,2013-02-28 09:25:00,
2013-02-28 04:30:00,33.4,32.9,29.56,NW,320,0.0,2.0,98,0.00,,---,0.01,VWS V14.01,2013-02-28 09:30:00,
2013-02-28 04:35:00,33.4,32.9,29.58,NW,319,1.0,5.0,98,0.00,,---,0.01,VWS V14.01,2013-02-28 09:35:00,
2013-02-28 04:40:00,33.4,32.9,29.58,WNW,298,1.0,1.0,98,0.00,,---,0.01,VWS V14.01,2013-02-28 09:40:00,
2013-02-28 04:45:00,33.4,32.9,29.58,WNW,298,0.0,1.0,98,0.00,,---,0.01,VWS V14.01,2013-02-28 09:45:00,
2013-02-28 04:50:00,33.4,32.9,29.58,WNW,298,0.0,1.0,98,0.00,,---,0.01,VWS V14.01,2013-02-28 09:50:00,
2013-02-28 04:55:00,33.4,32.9,29.58,WNW,298,0.0,0.0,98,0.01,,---,0.02,VWS V14.01,2013-02-28 09:55:00,
2013-02-28 05:00:00,33.5,33.0,29.58,WNW,298,0.0,1.0,98,0.01,,---,0.02,VWS V14.01,2013-02-28 10:00:00,
2013-02-28 05:05:00,33.4,32.9,29.58,WNW,302,0.0,3.0,98,0.01,,---,0.02,VWS V14.01,2013-02-28 10:05:00,
2013-02-28 05:10:00,33.4,32.9,29.58,WNW,302,0.0,1.0,98,0.01,,---,0.02,VWS V14.01,2013-02-28 10:10:00,
2013-02-28 05:15:00,33.5,33.0,29.58,WNW,302,0.0,1.0,98,0.01,,---,0.02,VWS V14.01,2013-02-28 10:15:00,
2013-02-28 05:20:00,33.4,32.6,29.58,WNW,302,0.0,1.0,97,0.01,,---,0.02,VWS V14.01,2013-02-28 10:20:00,
2013-02-28 05:24:00,33.4,32.6,29.58,WNW,302,2.0,2.0,97,0.01,,---,0.02,VWS V14.01,2013-02-28 10:24:00,
2013-02-28 05:29:00,33.4,32.6,29.58,NW,306,1.0,2.0,97,0.01,,---,0.02,VWS V14.01,2013-02-28 10:29:00,
2013-02-28 05:34:00,33.4,32.6,29.59,NW,306,1.0,3.0,97,0.01,,---,0.02,VWS V14.01,2013-02-28 10:34:00,
2013-02-28 05:39:00,33.4,32.6,29.59,NW,307,0.0,2.0,97,0.01,,---,0.02,VWS V14.01,2013-02-28 10:39:00,
2013-02-28 05:44:00,33.4,32.6,29.59,NW,326,0.0,2.0,97,0.01,,---,0.02,VWS V14.01,2013-02-28 10:44:00,
2013-02-28 05:49:00,33.4,32.6,29.60,WNW,292,0.0,3.0,97,0.01,,---,0.02,VWS V14.01,2013-02-28 10:49:00,
2013-02-28 05:54:00,33.4,32.6,29.60,WSW,249,0.0,1.0,97,0.00,,---,0.02,VWS V14.01,2013-02-28 10:54:00,
2013-02-28 05:59:00,33.4,32.6,29.60,NNW,338,1.0,1.0,97,0.00,,---,0.02,VWS V14.01,2013-02-28 10:59:00,
2013-02-28 06:04:00,33.4,32.6,29.61,WNW,287,4.0,4.0,97,0.00,,---,0.02,VWS V14.01,2013-02-28 11:04:00,
2013-02-28 06:09:00,33.4,32.4,29.61,WNW,289,0.0,2.0,96,0.00,,---,0.02,VWS V14.01,2013-02-28 11:09:00,
2013-02-28 06:14:00,33.4,32.4,29.61,NW,319,0.0,3.0,96,0.00,,---,0.02,VWS V14.01,2013-02-28 11:14:00,
2013-02-28 06:19:00,33.4,32.4,29.61,NW,317,0.0,2.0,96,0.00,,---,0.02,VWS V14.01,2013-02-28 11:19:00,
2013-02-28 06:24:00,33.4,32.4,29.61,NW,316,0.0,1.0,96,0.00,,---,0.02,VWS V14.01,2013-02-28 11:24:00,
2013-02-28 06:29:00,33.4,32.4,29.61,West,260,0.0,1.0,96,0.00,,---,0.02,VWS V14.01,2013-02-28 11:29:00,
2013-02-28 06:34:00,33.4,32.4,29.61,WNW,303,2.0,4.0,96,0.00,,---,0.02,VWS V14.01,2013-02-28 11:34:00,
2013-02-28 06:39:00,33.4,32.4,29.61,WNW,303,1.0,2.0,96,0.00,,---,0.02,VWS V14.01,2013-02-28 11:39:00,
2013-02-28 06:44:00,33.4,32.4,29.61,NW,320,0.0,2.0,96,0.00,,---,0.02,VWS V14.01,2013-02-28 11:44:00,
2013-02-28 06:49:00,33.3,32.3,29.62,NW,319,2.0,3.0,96,0.00,,---,0.02,VWS V14.01,2013-02-28 11:49:00,
2013-02-28 06:54:00,33.3,32.3,29.62,WNW,295,4.0,4.0,96,0.00,,---,0.02,VWS V14.01,2013-02-28 11:54:00,
2013-02-28 06:59:00,33.3,32.3,29.62,NW,313,1.0,4.0,96,0.00,,---,0.02,VWS V14.01,2013-02-28 11:59:00,
2013-02-28 07:04:00,33.3,32.0,29.63,NNW,330,2.0,3.0,95,0.00,,---,0.02,VWS V14.01,2013-02-28 12:04:00,
2013-02-28 07:09:00,33.3,32.0,29.63,WNW,290,0.0,1.0,95,0.00,,---,0.02,VWS V14.01,2013-02-28 12:09:00,
2013-02-28 07:14:00,33.3,32.0,29.63,NW,322,1.0,2.0,95,0.00,,---,0.02,VWS V14.01,2013-02-28 12:14:00,
2013-02-28 07:19:00,33.3,32.0,29.63,NW,310,1.0,3.0,95,0.00,,---,0.02,VWS V14.01,2013-02-28 12:19:00,
2013-02-28 07:24:00,33.3,32.0,29.63,NW,315,0.0,5.0,95,0.00,,---,0.02,VWS V14.01,2013-02-28 12:24:00,
2013-02-28 07:29:00,33.3,32.0,29.63,NW,316,0.0,3.0,95,0.00,,---,0.02,VWS V14.01,2013-02-28 12:29:00,
2013-02-28 07:34:00,33.3,32.0,29.64,NW,304,1.0,4.0,95,0.00,,---,0.02,VWS V14.01,2013-02-28 12:34:00,
2013-02-28 07:39:00,33.3,32.0,29.64,NW,304,0.0,2.0,95,0.00,,---,0.02,VWS V14.01,2013-02-28 12:39:00,
2013-02-28 07:44:00,33.3,32.0,29.64,NW,304,0.0,4.0,95,0.00,,---,0.02,VWS V14.01,2013-02-28 12:44:00,
2013-02-28 07:50:00,33.3,32.0,29.64,NNW,328,4.0,6.0,95,0.00,,---,0.02,VWS V14.01,2013-02-28 12:50:00,
2013-02-28 07:55:00,33.3,32.0,29.64,West,278,0.0,4.0,95,0.00,,---,0.02,VWS V14.01,2013-02-28 12:55:00,
2013-02-28 08:00:00,33.3,32.0,29.64,NW,317,0.0,4.0,95,0.00,,---,0.02,VWS V14.01,2013-02-28 13:00:00,
2013-02-28 08:04:00,33.4,32.1,29.65,WNW,302,1.0,3.0,95,0.00,,---,0.02,VWS V14.01,2013-02-28 13:04:00,
2013-02-28 08:09:00,33.4,32.1,29.65,WNW,295,2.0,4.0,95,0.00,,---,0.02,VWS V14.01,2013-02-28 13:09:00,
2013-02-28 08:14:00,33.4,31.9,29.65,NW,326,1.0,3.0,94,0.00,,---,0.02,VWS V14.01,2013-02-28 13:14:00,
2013-02-28 08:19:00,33.4,31.9,29.66,NW,319,1.0,1.0,94,0.00,,---,0.02,VWS V14.01,2013-02-28 13:19:00,
2013-02-28 08:24:00,33.5,32.0,29.66,WNW,295,4.0,5.0,94,0.00,,---,0.02,VWS V14.01,2013-02-28 13:24:00,
2013-02-28 08:29:00,33.6,32.1,29.66,NNW,338,2.0,3.0,94,0.00,,---,0.02,VWS V14.01,2013-02-28 13:29:00,
2013-02-28 08:34:00,33.8,32.3,29.66,NW,307,0.0,2.0,94,0.00,,---,0.02,VWS V14.01,2013-02-28 13:34:00,
2013-02-28 08:39:00,33.9,32.4,29.66,West,278,0.0,4.0,94,0.00,,---,0.02,VWS V14.01,2013-02-28 13:39:00,
2013-02-28 08:44:00,34.0,32.2,29.66,NW,318,0.0,2.0,93,0.00,,---,0.02,VWS V14.01,2013-02-28 13:44:00,
2013-02-28 08:49:00,34.2,32.4,29.67,WNW,300,0.0,3.0,93,0.00,,---,0.02,VWS V14.01,2013-02-28 13:49:00,
2013-02-28 08:54:00,34.3,32.5,29.67,NW,304,0.0,2.0,93,0.00,,---,0.02,VWS V14.01,2013-02-28 13:54:00,
2013-02-28 08:59:00,34.4,32.6,29.67,NNW,335,0.0,4.0,93,0.00,,---,0.02,VWS V14.01,2013-02-28 13:59:00,
2013-02-28 09:04:00,34.4,32.3,29.67,NNW,343,4.0,4.0,92,0.00,,---,0.02,VWS V14.01,2013-02-28 14:04:00,
2013-02-28 09:09:00,34.5,32.4,29.67,NW,314,2.0,5.0,92,0.01,,---,0.03,VWS V14.01,2013-02-28 14:09:00,
2013-02-28 09:14:00,34.5,32.4,29.67,NNW,333,0.0,2.0,92,0.01,,---,0.03,VWS V14.01,2013-02-28 14:14:00,
2013-02-28 09:19:00,34.6,32.5,29.68,NNW,333,6.0,7.0,92,0.01,,---,0.03,VWS V14.01,2013-02-28 14:19:00,
2013-02-28 09:24:00,34.6,32.2,29.68,WNW,288,1.0,4.0,91,0.01,,---,0.03,VWS V14.01,2013-02-28 14:24:00,
2013-02-28 09:29:00,34.7,32.3,29.68,NW,316,0.0,3.0,91,0.01,,---,0.03,VWS V14.01,2013-02-28 14:29:00,
2013-02-28 09:34:00,34.8,32.5,29.69,NNW,329,0.0,3.0,91,0.01,,---,0.03,VWS V14.01,2013-02-28 14:34:00,
2013-02-28 09:39:00,34.8,32.5,29.69,NW,322,2.0,4.0,91,0.02,,---,0.04,VWS V14.01,2013-02-28 14:39:00,
2013-02-28 09:44:00,35.0,32.6,29.69,NNW,331,0.0,6.0,91,0.02,,---,0.04,VWS V14.01,2013-02-28 14:44:00,
2013-02-28 09:49:00,35.1,32.7,29.69,WNW,297,3.0,6.0,91,0.02,,---,0.04,VWS V14.01,2013-02-28 14:49:00,
2013-02-28 09:54:00,35.2,32.8,29.69,NNE,29,0.0,2.0,91,0.02,,---,0.04,VWS V14.01,2013-02-28 14:54:00,
2013-02-28 09:59:00,35.3,32.7,29.69,WNW,297,1.0,3.0,90,0.02,,---,0.04,VWS V14.01,2013-02-28 14:59:00,
2013-02-28 10:04:00,35.4,32.8,29.69,NW,316,0.0,3.0,90,0.03,,---,0.05,VWS V14.01,2013-02-28 15:04:00,
2013-02-28 10:09:00,35.6,32.7,29.69,NNW,338,0.0,2.0,89,0.02,,---,0.05,VWS V14.01,2013-02-28 15:09:00,
2013-02-28 10:14:00,35.8,32.9,29.69,NW,316,1.0,2.0,89,0.02,,---,0.05,VWS V14.01,2013-02-28 15:14:00,
2013-02-28 10:19:00,35.9,33.0,29.70,NNW,338,2.0,7.0,89,0.02,,---,0.05,VWS V14.01,2013-02-28 15:19:00,
2013-02-28 10:24:00,35.9,33.0,29.70,WNW,293,4.0,5.0,89,0.03,,---,0.06,VWS V14.01,2013-02-28 15:24:00,
2013-02-28 10:29:00,35.7,32.5,29.70,NW,320,0.0,7.0,88,0.03,,---,0.06,VWS V14.01,2013-02-28 15:29:00,
2013-02-28 10:34:00,35.7,32.8,29.71,NW,309,0.0,4.0,89,0.03,,---,0.06,VWS V14.01,2013-02-28 15:34:00,
2013-02-28 10:39:00,35.9,33.0,29.71,NNW,329,0.0,2.0,89,0.02,,---,0.06,VWS V14.01,2013-02-28 15:39:00,
2013-02-28 10:44:00,36.1,32.9,29.71,North,357,0.0,1.0,88,0.02,,---,0.06,VWS V14.01,2013-02-28 15:44:00,
2013-02-28 10:49:00,36.2,33.0,29.71,NW,313,0.0,4.0,88,0.02,,---,0.06,VWS V14.01,2013-02-28 15:49:00,
2013-02-28 10:54:00,36.2,33.0,29.71,NW,323,3.0,3.0,88,0.02,,---,0.06,VWS V14.01,2013-02-28 15:54:00,
2013-02-28 10:59:00,36.4,32.9,29.71,WNW,288,3.0,5.0,87,0.03,,---,0.07,VWS V14.01,2013-02-28 15:59:00,
2013-02-28 11:04:00,36.5,33.3,29.71,WNW,288,1.0,3.0,88,0.02,,---,0.07,VWS V14.01,2013-02-28 16:04:00,
2013-02-28 11:09:00,36.6,33.4,29.71,WNW,295,0.0,3.0,88,0.02,,---,0.07,VWS V14.01,2013-02-28 16:09:00,
2013-02-28 11:14:00,37.0,33.5,29.71,NW,322,1.0,4.0,87,0.02,,---,0.07,VWS V14.01,2013-02-28 16:14:00,
2013-02-28 11:19:00,37.0,33.2,29.72,NW,325,0.0,3.0,86,0.02,,---,0.07,VWS V14.01,2013-02-28 16:19:00,
2013-02-28 11:24:00,37.3,33.2,29.72,NW,319,1.0,5.0,85,0.01,,---,0.07,VWS V14.01,2013-02-28 16:24:00,
2013-02-28 11:29:00,37.5,33.4,29.72,North,353,2.0,5.0,85,0.01,,---,0.07,VWS V14.01,2013-02-28 16:29:00,
2013-02-28 11:34:00,37.4,33.3,29.72,NW,306,0.0,2.0,85,0.02,,---,0.08,VWS V14.01,2013-02-28 16:34:00,
2013-02-28 11:39:00,37.3,33.2,29.72,NNW,342,0.0,4.0,85,0.02,,---,0.08,VWS V14.01,2013-02-28 16:39:00,
2013-02-28 11:44:00,37.3,33.2,29.72,NW,309,0.0,4.0,85,0.02,,---,0.08,VWS V14.01,2013-02-28 16:44:00,
2013-02-28 11:49:00,37.2,33.1,29.73,NNW,331,3.0,5.0,85,0.02,,---,0.08,VWS V14.01,2013-02-28 16:49:00,
2013-02-28 11:54:00,37.2,33.1,29.73,WNW,295,1.0,1.0,85,0.02,,---,0.08,VWS V14.01,2013-02-28 16:54:00,
2013-02-28 11:59:00,37.2,33.1,29.73,NW,314,0.0,3.0,85,0.01,,---,0.08,VWS V14.01,2013-02-28 16:59:00,
2013-02-28 12:04:00,37.3,33.2,29.73,NW,305,0.0,4.0,85,0.01,,---,0.08,VWS V14.01,2013-02-28 17:04:00,
2013-02-28 12:09:00,37.5,33.4,29.73,NNW,339,4.0,4.0,85,0.01,,---,0.08,VWS V14.01,2013-02-28 17:09:00,
2013-02-28 12:14:00,37.6,32.9,29.73,NW,305,1.0,5.0,83,0.01,,---,0.08,VWS V14.01,2013-02-28 17:14:00,
2013-02-28 12:19:00,37.5,32.8,29.73,WNW,288,4.0,4.0,83,0.01,,---,0.08,VWS V14.01,2013-02-28 17:19:00,
2013-02-28 12:24:00,37.6,33.2,29.73,NW,315,1.0,3.0,84,0.01,,---,0.08,VWS V14.01,2013-02-28 17:24:00,
2013-02-28 12:29:00,37.7,33.3,29.73,NW,318,2.0,2.0,84,0.01,,---,0.08,VWS V14.01,2013-02-28 17:29:00,
2013-02-28 12:34:00,37.7,33.0,29.73,NW,315,0.0,1.0,83,0.00,,---,0.08,VWS V14.01,2013-02-28 17:34:00,
2013-02-28 12:39:00,37.9,33.5,29.73,North,6,1.0,1.0,84,0.00,,---,0.08,VWS V14.01,2013-02-28 17:39:00,
2013-02-28 12:44:00,37.9,33.2,29.73,NW,311,3.0,3.0,83,0.00,,---,0.08,VWS V14.01,2013-02-28 17:44:00,
2013-02-28 12:49:00,38.2,33.5,29.73,WNW,298,3.0,3.0,83,0.00,,---,0.08,VWS V14.01,2013-02-28 17:49:00,
2013-02-28 12:54:00,38.3,33.3,29.73,West,271,2.0,4.0,82,0.00,,---,0.08,VWS V14.01,2013-02-28 17:54:00,
2013-02-28 12:59:00,38.1,33.1,29.73,North,352,1.0,4.0,82,0.00,,---,0.08,VWS V14.01,2013-02-28 17:59:00,
2013-02-28 13:04:00,38.0,33.0,29.74,WNW,298,2.0,3.0,82,0.01,,---,0.09,VWS V14.01,2013-02-28 18:04:00,
2013-02-28 13:09:00,37.9,32.9,29.74,North,359,0.0,2.0,82,0.01,,---,0.09,VWS V14.01,2013-02-28 18:09:00,
2013-02-28 13:14:00,38.0,33.3,29.74,NW,314,1.0,3.0,83,0.01,,---,0.09,VWS V14.01,2013-02-28 18:14:00,
2013-02-28 13:19:00,38.2,33.2,29.74,WNW,300,0.0,2.0,82,0.01,,---,0.09,VWS V14.01,2013-02-28 18:19:00,
2013-02-28 13:24:00,38.2,33.2,29.74,WNW,303,2.0,2.0,82,0.01,,---,0.09,VWS V14.01,2013-02-28 18:24:00,
2013-02-28 13:29:00,38.2,33.2,29.74,WNW,300,2.0,2.0,82,0.01,,---,0.09,VWS V14.01,2013-02-28 18:29:00,
2013-02-28 13:34:00,38.2,33.2,29.74,NW,311,0.0,1.0,82,0.01,,---,0.09,VWS V14.01,2013-02-28 18:34:00,
2013-02-28 13:39:00,38.3,33.3,29.74,NW,304,1.0,4.0,82,0.01,,---,0.09,VWS V14.01,2013-02-28 18:39:00,
2013-02-28 13:44:00,38.0,33.3,29.74,NW,320,0.0,3.0,83,0.01,,---,0.09,VWS V14.01,2013-02-28 18:44:00,
2013-02-28 13:49:00,37.8,33.1,29.74,WNW,302,1.0,3.0,83,0.01,,---,0.09,VWS V14.01,2013-02-28 18:49:00,
2013-02-28 13:54:00,37.7,33.3,29.74,NW,320,0.0,3.0,84,0.01,,---,0.09,VWS V14.01,2013-02-28 18:54:00,
2013-02-28 13:59:00,37.5,33.1,29.74,West,265,2.0,9.0,84,0.01,,---,0.09,VWS V14.01,2013-02-28 18:59:00,
2013-02-28 14:04:00,37.4,33.0,29.74,NW,309,3.0,5.0,84,0.01,,---,0.09,VWS V14.01,2013-02-28 19:04:00,
2013-02-28 14:09:00,37.3,32.9,29.74,West,278,0.0,4.0,84,0.00,,---,0.09,VWS V14.01,2013-02-28 19:09:00,
2013-02-28 14:14:00,37.3,32.9,29.74,WNW,291,2.0,3.0,84,0.00,,---,0.09,VWS V14.01,2013-02-28 19:14:00,
2013-02-28 14:19:00,37.8,33.1,29.75,NNW,328,0.0,3.0,83,0.00,,---,0.09,VWS V14.01,2013-02-28 19:19:00,
2013-02-28 14:24:00,38.3,33.3,29.75,WNW,303,0.0,3.0,82,0.00,,---,0.09,VWS V14.01,2013-02-28 19:24:00,
2013-02-28 14:29:00,38.1,33.1,29.75,WNW,283,4.0,4.0,82,0.00,,---,0.09,VWS V14.01,2013-02-28 19:29:00,
2013-02-28 14:34:00,38.0,33.0,29.75,WNW,302,1.0,3.0,82,0.00,,---,0.09,VWS V14.01,2013-02-28 19:34:00,
2013-02-28 14:39:00,38.2,33.5,29.75,WNW,284,1.0,3.0,83,0.00,,---,0.09,VWS V14.01,2013-02-28 19:39:00,
2013-02-28 14:44:00,38.3,33.3,29.75,NW,304,0.0,6.0,82,0.00,,---,0.09,VWS V14.01,2013-02-28 19:44:00,
2013-02-28 14:49:00,38.0,32.7,29.75,NW,323,0.0,4.0,81,0.00,,---,0.09,VWS V14.01,2013-02-28 19:49:00,
2013-02-28 14:54:00,38.6,33.6,29.75,West,274,3.0,4.0,82,0.00,,---,0.09,VWS V14.01,2013-02-28 19:54:00,
2013-02-28 14:59:00,39.2,33.2,29.75,WNW,297,3.0,5.0,79,0.00,,---,0.09,VWS V14.01,2013-02-28 19:59:00,
2013-02-28 15:04:00,38.7,32.8,29.75,WNW,297,0.0,4.0,79,0.00,,---,0.09,VWS V14.01,2013-02-28 20:04:00,
2013-02-28 15:09:00,38.2,32.6,29.75,NNW,339,0.0,3.0,80,0.00,,---,0.09,VWS V14.01,2013-02-28 20:09:00,
2013-02-28 15:14:00,38.0,32.7,29.75,NW,321,0.0,1.0,81,0.00,,---,0.09,VWS V14.01,2013-02-28 20:14:00,
2013-02-28 15:19:00,38.2,33.2,29.76,NW,321,0.0,1.0,82,0.00,,---,0.09,VWS V14.01,2013-02-28 20:19:00,
2013-02-28 15:24:00,38.1,32.8,29.76,West,271,0.0,5.0,81,0.00,,---,0.09,VWS V14.01,2013-02-28 20:24:00,
2013-02-28 15:29:00,38.1,32.5,29.76,WNW,294,0.0,4.0,80,0.00,,---,0.09,VWS V14.01,2013-02-28 20:29:00,
2013-02-28 15:34:00,38.4,32.8,29.76,North,359,0.0,4.0,80,0.00,,---,0.09,VWS V14.01,2013-02-28 20:34:00,
2013-02-28 15:39:00,38.1,32.5,29.76,NW,313,0.0,4.0,80,0.00,,---,0.09,VWS V14.01,2013-02-28 20:39:00,
2013-02-28 15:44:00,37.7,32.4,29.76,NNW,327,0.0,3.0,81,0.00,,---,0.09,VWS V14.01,2013-02-28 20:44:00,
2013-02-28 15:49:00,37.4,32.4,29.77,NNW,327,0.0,3.0,82,0.00,,---,0.09,VWS V14.01,2013-02-28 20:49:00,
2013-02-28 15:54:00,37.2,32.2,29.77,NW,306,0.0,1.0,82,0.00,,---,0.09,VWS V14.01,2013-02-28 20:54:00,
2013-02-28 15:59:00,37.0,32.3,29.77,West,262,6.0,6.0,83,0.00,,---,0.09,VWS V14.01,2013-02-28 20:59:00,
2013-02-28 16:04:00,36.8,32.1,29.78,WNW,291,0.0,5.0,83,0.00,,---,0.09,VWS V14.01,2013-02-28 21:04:00,
2013-02-28 16:09:00,36.7,32.0,29.78,WNW,285,3.0,3.0,83,0.00,,---,0.09,VWS V14.01,2013-02-28 21:09:00,
2013-02-28 16:14:00,36.7,32.0,29.78,WNW,293,3.0,4.0,83,0.00,,---,0.09,VWS V14.01,2013-02-28 21:14:00,
2013-02-28 16:19:00,36.6,31.9,29.78,WSW,253,1.0,5.0,83,0.00,,---,0.09,VWS V14.01,2013-02-28 21:19:00,
2013-02-28 16:24:00,36.6,32.2,29.78,WNW,303,0.0,2.0,84,0.00,,---,0.09,VWS V14.01,2013-02-28 21:24:00,
2013-02-28 16:29:00,36.6,32.2,29.78,NNW,330,0.0,5.0,84,0.00,,---,0.09,VWS V14.01,2013-02-28 21:29:00,
2013-02-28 16:34:00,36.5,32.1,29.79,NW,307,1.0,3.0,84,0.00,,---,0.09,VWS V14.01,2013-02-28 21:34:00,
2013-02-28 16:39:00,36.4,32.0,29.79,WNW,301,1.0,4.0,84,0.00,,---,0.09,VWS V14.01,2013-02-28 21:39:00,
2013-02-28 16:44:00,36.3,31.9,29.79,NW,315,0.0,2.0,84,0.00,,---,0.09,VWS V14.01,2013-02-28 21:44:00,
2013-02-28 16:49:00,36.3,31.9,29.80,NNE,30,3.0,3.0,84,0.00,,---,0.09,VWS V14.01,2013-02-28 21:49:00,
2013-02-28 16:54:00,36.1,31.7,29.80,WNW,295,2.0,9.0,84,0.00,,---,0.09,VWS V14.01,2013-02-28 21:54:00,
2013-02-28 16:59:00,36.0,31.6,29.80,NW,307,3.0,5.0,84,0.00,,---,0.09,VWS V14.01,2013-02-28 21:59:00,
2013-02-28 17:04:00,35.7,31.6,29.81,NW,305,3.0,6.0,85,0.00,,---,0.09,VWS V14.01,2013-02-28 22:04:00,
2013-02-28 17:09:00,35.5,31.5,29.81,WNW,290,4.0,6.0,85,0.00,,---,0.09,VWS V14.01,2013-02-28 22:09:00,
2013-02-28 17:14:00,35.2,31.1,29.81,WNW,303,1.0,4.0,85,0.00,,---,0.09,VWS V14.01,2013-02-28 22:14:00,
2013-02-28 17:19:00,35.1,31.3,29.81,NNW,347,5.0,5.0,86,0.00,,---,0.09,VWS V14.01,2013-02-28 22:19:00,
2013-02-28 17:24:00,35.1,31.0,29.81,NW,311,5.0,6.0,85,0.00,,---,0.09,VWS V14.01,2013-02-28 22:24:00,
2013-02-28 17:29:00,35.0,31.0,29.81,NW,309,2.0,4.0,85,0.00,,---,0.09,VWS V14.01,2013-02-28 22:29:00,
2013-02-28 17:34:00,34.9,30.9,29.82,WNW,282,3.0,4.0,85,0.00,,---,0.09,VWS V14.01,2013-02-28 22:34:00,
2013-02-28 17:39:00,34.8,31.0,29.82,WNW,300,2.0,3.0,86,0.00,,---,0.09,VWS V14.01,2013-02-28 22:39:00,
2013-02-28 17:44:00,34.7,31.0,29.82,NNW,328,0.0,5.0,86,0.00,,---,0.09,VWS V14.01,2013-02-28 22:44:00,
2013-02-28 17:49:00,34.5,30.8,29.82,WNW,300,0.0,1.0,86,0.00,,---,0.09,VWS V14.01,2013-02-28 22:49:00,
2013-02-28 17:54:00,34.4,30.6,29.82,WNW,300,0.0,3.0,86,0.00,,---,0.09,VWS V14.01,2013-02-28 22:54:00,
2013-02-28 17:59:00,34.3,30.6,29.82,WNW,300,0.0,5.0,86,0.00,,---,0.09,VWS V14.01,2013-02-28 22:59:00,
2013-02-28 18:04:00,34.2,30.5,29.83,WNW,300,3.0,5.0,86,0.00,,---,0.09,VWS V14.01,2013-02-28 23:04:00,
2013-02-28 18:09:00,34.1,30.6,29.83,NW,316,0.0,2.0,87,0.00,,---,0.09,VWS V14.01,2013-02-28 23:09:00,
2013-02-28 18:14:00,34.0,30.5,29.83,NNE,14,2.0,3.0,87,0.00,,---,0.09,VWS V14.01,2013-02-28 23:14:00,
2013-02-28 18:19:00,33.9,30.5,29.84,NNW,341,2.0,4.0,87,0.00,,---,0.09,VWS V14.01,2013-02-28 23:19:00,
2013-02-28 18:24:00,33.9,30.5,29.84,WNW,300,3.0,4.0,87,0.00,,---,0.09,VWS V14.01,2013-02-28 23:24:00,
2013-02-28 18:29:00,33.8,30.4,29.84,WNW,286,3.0,3.0,87,0.00,,---,0.09,VWS V14.01,2013-02-28 23:29:00,
2013-02-28 18:34:00,33.8,30.6,29.85,NW,323,0.0,0.0,88,0.00,,---,0.09,VWS V14.01,2013-02-28 23:34:00,
2013-02-28 18:39:00,33.7,30.5,29.85,NW,326,0.0,2.0,88,0.00,,---,0.09,VWS V14.01,2013-02-28 23:39:00,
2013-02-28 18:44:00,33.7,30.5,29.85,NW,318,0.0,3.0,88,0.00,,---,0.09,VWS V14.01,2013-02-28 23:44:00,
2013-02-28 18:49:00,33.6,30.4,29.85,West,278,0.0,0.0,88,0.00,,---,0.09,VWS V14.01,2013-02-28 23:49:00,
2013-02-28 18:54:00,33.5,30.3,29.85,WNW,282,3.0,3.0,88,0.00,,---,0.09,VWS V14.01,2013-02-28 23:54:00,
2013-02-28 18:59:00,33.4,30.2,29.85,WNW,283,1.0,5.0,88,0.00,,---,0.09,VWS V14.01,2013-02-28 23:59:00,
2013-02-28 19:04:00,33.3,30.1,29.86,WSW,253,0.0,4.0,88,0.00,,---,0.09,VWS V14.01,2013-03-01 00:04:00,
2013-02-28 19:09:00,33.3,30.1,29.86,NW,316,1.0,4.0,88,0.00,,---,0.09,VWS V14.01,2013-03-01 00:09:00,
2013-02-28 19:14:00,33.2,30.0,29.86,NW,319,0.0,3.0,88,0.00,,---,0.09,VWS V14.01,2013-03-01 00:14:00,
2013-02-28 19:19:00,33.2,30.0,29.86,NW,305,0.0,1.0,88,0.00,,---,0.09,VWS V14.01,2013-03-01 00:19:00,
2013-02-28 19:24:00,33.2,30.0,29.86,NW,306,0.0,1.0,88,0.00,,---,0.09,VWS V14.01,2013-03-01 00:24:00,
2013-02-28 19:29:00,33.2,30.0,29.86,North,357,0.0,1.0,88,0.00,,---,0.09,VWS V14.01,2013-03-01 00:29:00,
2013-02-28 19:34:00,33.2,30.0,29.88,NNW,338,1.0,2.0,88,0.00,,---,0.09,VWS V14.01,2013-03-01 00:34:00,
2013-02-28 19:39:00,33.1,30.2,29.88,NW,315,2.0,4.0,89,0.00,,---,0.09,VWS V14.01,2013-03-01 00:39:00,
2013-02-28 19:44:00,33.0,29.8,29.88,NNW,343,3.0,5.0,88,0.00,,---,0.09,VWS V14.01,2013-03-01 00:44:00,
2013-02-28 19:49:00,33.0,29.8,29.88,WNW,302,0.0,2.0,88,0.00,,---,0.09,VWS V14.01,2013-03-01 00:49:00,
2013-02-28 19:54:00,33.0,29.8,29.88,NNW,334,0.0,3.0,88,0.00,,---,0.09,VWS V14.01,2013-03-01 00:54:00,
2013-02-28 19:59:00,33.0,30.1,29.88,NW,318,2.0,2.0,89,0.00,,---,0.09,VWS V14.01,2013-03-01 00:59:00,
2013-02-28 20:04:00,32.9,30.0,29.88,North,1,0.0,4.0,89,0.00,,---,0.09,VWS V14.01,2013-03-01 01:04:00,
2013-02-28 20:09:00,32.8,29.9,29.88,NNW,346,0.0,4.0,89,0.00,,---,0.09,VWS V14.01,2013-03-01 01:09:00,
2013-02-28 20:14:00,32.8,29.9,29.88,West,278,0.0,2.0,89,0.00,,---,0.09,VWS V14.01,2013-03-01 01:14:00,
2013-02-28 20:19:00,32.7,29.8,29.88,WNW,301,0.0,4.0,89,0.00,,---,0.09,VWS V14.01,2013-03-01 01:19:00,
2013-02-28 20:24:00,32.7,30.1,29.88,WNW,297,0.0,3.0,90,0.00,,---,0.09,VWS V14.01,2013-03-01 01:24:00,
2013-02-28 20:29:00,32.6,30.0,29.88,NW,310,4.0,5.0,90,0.00,,---,0.09,VWS V14.01,2013-03-01 01:29:00,
2013-02-28 20:34:00,32.5,29.9,29.88,NW,323,0.0,2.0,90,0.00,,---,0.09,VWS V14.01,2013-03-01 01:34:00,
2013-02-28 20:39:00,32.5,30.2,29.88,NNW,327,3.0,3.0,91,0.00,,---,0.09,VWS V14.01,2013-03-01 01:39:00,
2013-02-28 20:44:00,32.4,30.1,29.88,North,359,1.0,2.0,91,0.00,,---,0.09,VWS V14.01,2013-03-01 01:44:00,
2013-02-28 20:49:00,32.4,29.8,29.89,West,274,0.0,1.0,90,0.00,,---,0.09,VWS V14.01,2013-03-01 01:49:00,
2013-02-28 20:54:00,32.4,29.8,29.89,NW,311,2.0,2.0,90,0.00,,---,0.09,VWS V14.01,2013-03-01 01:54:00,
2013-02-28 20:59:00,32.3,29.7,29.89,NW,322,0.0,1.0,90,0.00,,---,0.09,VWS V14.01,2013-03-01 01:59:00,
2013-02-28 21:04:00,32.4,29.8,29.89,NW,307,3.0,4.0,90,0.00,,---,0.09,VWS V14.01,2013-03-01 02:04:00,
2013-02-28 21:09:00,32.4,29.5,29.89,WNW,291,0.0,2.0,89,0.00,,---,0.09,VWS V14.01,2013-03-01 02:09:00,
2013-02-28 21:14:00,32.4,29.5,29.89,WNW,292,0.0,0.0,89,0.00,,---,0.09,VWS V14.01,2013-03-01 02:14:00,
2013-02-28 21:19:00,32.4,29.5,29.89,NNW,336,0.0,4.0,89,0.00,,---,0.09,VWS V14.01,2013-03-01 02:19:00,
2013-02-28 21:24:00,32.3,29.4,29.89,NNW,342,2.0,2.0,89,0.00,,---,0.09,VWS V14.01,2013-03-01 02:24:00,
2013-02-28 21:29:00,32.3,29.4,29.89,NW,326,0.0,3.0,89,0.00,,---,0.09,VWS V14.01,2013-03-01 02:29:00,
2013-02-28 21:34:00,32.2,29.6,29.89,NW,307,1.0,3.0,90,0.00,,---,0.09,VWS V14.01,2013-03-01 02:34:00,
2013-02-28 21:39:00,32.2,29.6,29.89,NNW,333,5.0,5.0,90,0.00,,---,0.09,VWS V14.01,2013-03-01 02:39:00,
2013-02-28 21:44:00,32.1,29.5,29.89,NNW,328,0.0,3.0,90,0.00,,---,0.09,VWS V14.01,2013-03-01 02:44:00,
2013-02-28 21:49:00,32.1,29.5,29.90,NW,325,2.0,4.0,90,0.00,,---,0.09,VWS V14.01,2013-03-01 02:49:00,
2013-02-28 21:54:00,32.1,29.5,29.90,NW,321,0.0,2.0,90,0.00,,---,0.09,VWS V14.01,2013-03-01 02:54:00,
2013-02-28 21:59:00,32.1,29.5,29.90,NW,311,0.0,2.0,90,0.00,,---,0.09,VWS V14.01,2013-03-01 02:59:00,
2013-02-28 22:04:00,32.0,29.4,29.90,WNW,296,2.0,3.0,90,0.00,,---,0.09,VWS V14.01,2013-03-01 03:04:00,
2013-02-28 22:09:00,32.0,29.4,29.90,NW,314,0.0,0.0,90,0.00,,---,0.09,VWS V14.01,2013-03-01 03:09:00,
2013-02-28 22:14:00,31.9,29.6,29.90,WNW,288,0.0,2.0,91,0.00,,---,0.09,VWS V14.01,2013-03-01 03:14:00,
2013-02-28 22:19:00,31.9,29.6,29.89,WNW,288,0.0,1.0,91,0.00,,---,0.09,VWS V14.01,2013-03-01 03:19:00,
2013-02-28 22:24:00,31.9,29.6,29.89,NW,325,0.0,0.0,91,0.00,,---,0.09,VWS V14.01,2013-03-01 03:24:00,
2013-02-28 22:29:00,31.9,29.6,29.89,NW,326,0.0,3.0,91,0.00,,---,0.09,VWS V14.01,2013-03-01 03:29:00,
2013-02-28 22:34:00,31.8,29.5,29.89,NW,326,0.0,1.0,91,0.00,,---,0.09,VWS V14.01,2013-03-01 03:34:00,
2013-02-28 22:39:00,31.7,29.4,29.89,NW,326,0.0,0.0,91,0.00,,---,0.09,VWS V14.01,2013-03-01 03:39:00,
2013-02-28 22:44:00,31.7,29.6,29.89,NW,321,0.0,0.0,92,0.00,,---,0.09,VWS V14.01,2013-03-01 03:44:00,
2013-02-28 22:49:00,31.7,29.4,29.89,NNW,329,0.0,0.0,91,0.00,,---,0.09,VWS V14.01,2013-03-01 03:49:00,
2013-02-28 22:54:00,31.7,29.4,29.89,NNW,329,2.0,2.0,91,0.00,,---,0.09,VWS V14.01,2013-03-01 03:54:00,
2013-02-28 22:59:00,31.8,29.5,29.89,NNW,327,0.0,0.0,91,0.00,,---,0.09,VWS V14.01,2013-03-01 03:59:00,
2013-02-28 23:04:00,31.8,29.5,29.89,NNW,327,0.0,1.0,91,0.00,,---,0.09,VWS V14.01,2013-03-01 04:04:00,
2013-02-28 23:09:00,31.9,29.6,29.89,NNW,327,0.0,1.0,91,0.00,,---,0.09,VWS V14.01,2013-03-01 04:09:00,
2013-02-28 23:14:00,31.9,29.3,29.89,NNW,327,0.0,0.0,90,0.00,,---,0.09,VWS V14.01,2013-03-01 04:14:00,
2013-02-28 23:19:00,31.9,29.3,29.89,NNW,327,0.0,0.0,90,0.00,,---,0.09,VWS V14.01,2013-03-01 04:19:00,
2013-02-28 23:24:00,31.9,29.3,29.89,NNW,327,0.0,1.0,90,0.00,,---,0.09,VWS V14.01,2013-03-01 04:24:00,
2013-02-28 23:29:00,32.0,29.4,29.89,NNW,327,0.0,0.0,90,0.00,,---,0.09,VWS V14.01,2013-03-01 04:29:00,
2013-02-28 23:34:00,32.0,29.4,29.89,NNW,327,0.0,0.0,90,0.00,,---,0.09,VWS V14.01,2013-03-01 04:34:00,
2013-02-28 23:39:00,32.0,29.4,29.89,NNW,327,0.0,0.0,90,0.00,,---,0.09,VWS V14.01,2013-03-01 04:39:00,
2013-02-28 23:44:00,32.0,29.1,29.89,NNW,328,0.0,2.0,89,0.00,,---,0.09,VWS V14.01,2013-03-01 04:44:00,
2013-02-28 23:49:00,32.0,29.1,29.89,North,1,0.0,0.0,89,0.00,,---,0.09,VWS V14.01,2013-03-01 04:49:00,
2013-02-28 23:54:00,32.0,29.1,29.89,North,1,0.0,0.0,89,0.00,,---,0.09,VWS V14.01,2013-03-01 04:54:00,
2013-02-28 23:59:00,32.0,29.1,29.89,North,1,0.0,0.0,89,0.00,,---,0.09,VWS V14.01,2013-03-01 04:59:00,